Weather History for PAWN - November, 2012

Change the Weather History Date:

Friday, November 30, 2012

  Actual Average (PAOT) Record (PAOT)
Temperature  
Mean Temperature -6 °F -  
Max Temperature 3 °F 11 °F 38 °F (1983)
Min Temperature -14 °F -1 °F -35 °F (1948)
Degree Days  
Heating Degree Days 70 60  
Month to date heating degree days 1677  
Since 1 July heating degree days 4359  
Cooling Degree Days 0    
Month to date cooling degree days  
Year to date cooling degree days  
Moisture  
Dew Point -11 °F    
Average Humidity 70    
Maximum Humidity 78    
Minimum Humidity 54    
Precipitation  
Precipitation 0.00 in 0.02 in 0.12 in (2004)
Month to date precipitation 0.77  
Year to date precipitation 10.24  
Snow  
Snow 0.00 in 0.40 in 4.80 in (2003)
Month to date snowfall 10.5  
Since 1 July snowfall 17.4  
Since 1 September snowfall 17.4  
Snow Depth -    
Sea Level Pressure  
Sea Level Pressure 30.27 in    
Wind  
Wind Speed 0 mph (NNW)    
Max Wind Speed 5 mph    
Max Gust Speed -    
Visibility 9 miles    
Events      
T = Trace of Precipitation, MM = Missing Value Source: NWS Daily Summary

Daily Weather History Graph

Daily Weather History Graph

Search for Another Location

Airport or City:

Trip Planner

Search our weather history database for the weather conditions in past years. The results will help you decide how hot, cold, wet, or windy it might be!

Date:

Astronomy

Nov. 30, 2012 Rise Set
Actual Time 12:13 PM AKST 3:07 PM AKST
Civil Twilight 10:30 AM AKST 4:50 PM AKST
Nautical Twilight 9:10 AM AKST 6:10 PM AKST
Astronomical Twilight 8:02 AM AKST 7:18 PM AKST
Moon 5:34 PM AKST 1:36 PM AKST
Length of Visible Light 6h 20m
Length of Day
2h 54m
Waning Gibbous, 95% of the Moon is Illuminated
Nov 30
Waning Gibbous
Dec 6
Last Quarter
Dec 12
New
Dec 19
First Quarter
Dec 28
Full

Hourly Weather History & Observations

Time (AKST) Temp. Windchill Dew Point Humidity Pressure Visibility Wind Dir Wind Speed Gust Speed Precip Events Conditions
12:16 AM -14.8 °F - -23.8 °F 64% 30.36 in 10.0 mi Calm Calm - N/A   Clear
12:36 AM -14.8 °F - -23.8 °F 64% 30.37 in 10.0 mi Calm Calm - N/A   Clear
1:16 AM -13.0 °F - -20.2 °F 70% 30.37 in 10.0 mi Calm Calm - N/A   Clear
1:36 AM -11.2 °F - -20.2 °F 64% 30.37 in 10.0 mi Calm Calm - N/A   Clear
1:56 AM -11.2 °F - -18.4 °F 70% 30.37 in 10.0 mi Calm Calm - N/A   Clear
2:16 AM -11.2 °F - -23.8 °F 54% 30.38 in 10.0 mi Calm Calm - N/A   Clear
2:36 AM -11.2 °F - -18.4 °F 70% 30.37 in 10.0 mi Calm Calm - N/A   Clear
2:56 AM -11.2 °F - -20.2 °F 64% 30.37 in 10.0 mi Calm Calm - N/A   Clear
3:16 AM -11.2 °F - -18.4 °F 70% 30.37 in 10.0 mi Calm Calm - N/A   Clear
3:36 AM -11.2 °F -20.6 °F -23.8 °F 54% 30.37 in 10.0 mi NNW 3.5 mph - N/A   Clear
3:56 AM -11.2 °F - -20.2 °F 64% 30.36 in 10.0 mi Calm Calm - N/A   Clear
4:16 AM -9.4 °F -20.9 °F -16.6 °F 71% 30.37 in 10.0 mi NNW 4.6 mph - N/A   Clear
4:36 AM -9.4 °F -20.9 °F -20.2 °F 59% 30.36 in 10.0 mi NNW 4.6 mph - N/A   Clear
4:56 AM -9.4 °F -18.6 °F -16.6 °F 71% 30.35 in 10.0 mi North 3.5 mph - N/A   Clear
5:16 AM -9.4 °F -20.9 °F -20.2 °F 59% 30.34 in 10.0 mi NNW 4.6 mph - N/A   Clear
5:36 AM -9.4 °F - -18.4 °F 65% 30.34 in 10.0 mi Calm Calm - N/A   Clear
5:56 AM -9.4 °F - -18.4 °F 65% 30.34 in 10.0 mi Calm Calm - N/A   Clear
6:16 AM -9.4 °F - -18.4 °F 65% 30.34 in 10.0 mi Calm Calm - N/A   Partly Cloudy
6:36 AM -7.6 °F - -13.0 °F 77% 30.33 in 10.0 mi Calm Calm - N/A   Partly Cloudy
6:56 AM -5.8 °F - -16.6 °F 60% 30.34 in 10.0 mi Calm Calm - N/A   Mostly Cloudy
7:16 AM -5.8 °F - -14.8 °F 65% 30.33 in 10.0 mi Calm Calm - N/A   Overcast
7:36 AM -5.8 °F - -11.2 °F 77% 30.34 in 10.0 mi Calm Calm - N/A   Overcast
7:56 AM -5.8 °F - -14.8 °F 65% 30.33 in 10.0 mi Calm Calm - N/A   Overcast
8:16 AM -5.8 °F - -14.8 °F 65% 30.32 in 10.0 mi Calm Calm - N/A   Partly Cloudy
8:36 AM -4.0 °F - -11.2 °F 71% 30.32 in 10.0 mi Calm Calm - N/A   Clear
8:56 AM -4.0 °F - -14.8 °F 60% 30.32 in 10.0 mi Calm Calm - N/A   Clear
9:16 AM -4.0 °F - -11.2 °F 71% 30.31 in 10.0 mi Calm Calm - N/A   Clear
9:36 AM -4.0 °F - -11.2 °F 71% 30.31 in 10.0 mi Calm Calm - N/A   Clear
9:56 AM -4.0 °F - -11.2 °F 71% 30.31 in 10.0 mi Calm Calm - N/A   Clear
10:16 AM -4.0 °F - -11.2 °F 71% 30.30 in 10.0 mi Calm Calm - N/A   Clear
10:36 AM -4.0 °F - -11.2 °F 71% 30.30 in 10.0 mi Calm Calm - N/A   Clear
10:56 AM -4.0 °F - -11.2 °F 71% 30.29 in 10.0 mi Calm Calm - N/A   Clear
11:16 AM -5.8 °F - -11.2 °F 77% 30.29 in 10.0 mi Calm Calm - N/A   Clear
11:36 AM -5.8 °F - -14.8 °F 65% 30.29 in 10.0 mi Calm Calm - N/A   Clear
11:56 AM -5.8 °F - -13.0 °F 71% 30.29 in 10.0 mi Calm Calm - N/A   Clear
12:16 PM -5.8 °F - -11.2 °F 77% 30.28 in 10.0 mi Calm Calm - N/A   Clear
12:36 PM -5.8 °F - -13.0 °F 71% 30.28 in 10.0 mi Calm Calm - N/A   Clear
12:56 PM -4.0 °F - -11.2 °F 71% 30.27 in 10.0 mi Calm Calm - N/A   Clear
1:16 PM -4.0 °F - -13.0 °F 65% 30.27 in 10.0 mi Calm Calm - N/A   Clear
1:36 PM -2.2 °F - -9.4 °F 71% 30.26 in 10.0 mi Calm Calm - N/A   Clear
1:56 PM -2.2 °F - -9.4 °F 71% 30.25 in 10.0 mi Calm Calm - N/A   Clear
2:16 PM -2.2 °F - -9.4 °F 71% 30.25 in 10.0 mi Calm Calm - N/A   Clear
2:36 PM -0.4 °F - -7.6 °F 72% 30.24 in 10.0 mi Calm Calm - N/A   Clear
2:56 PM -0.4 °F - -7.6 °F 72% 30.24 in 10.0 mi Calm Calm - N/A   Clear
3:16 PM -0.4 °F - -7.6 °F 72% 30.24 in 10.0 mi Calm Calm - N/A   Clear
3:36 PM -0.4 °F - -9.4 °F 66% 30.23 in 10.0 mi Calm Calm - N/A   Clear
3:56 PM -0.4 °F - -7.6 °F 72% 30.23 in 10.0 mi Calm Calm - N/A   Clear
4:16 PM -0.4 °F - -7.6 °F 72% 30.23 in 10.0 mi Calm Calm - N/A   Clear
4:36 PM -0.4 °F - -5.8 °F 78% 30.22 in 10.0 mi Calm Calm - N/A   Clear
4:56 PM 1.4 °F - -7.6 °F 66% 30.21 in 10.0 mi Calm Calm - N/A   Partly Cloudy
5:16 PM 1.4 °F - -7.6 °F 66% 30.21 in 10.0 mi Calm Calm - N/A   Mostly Cloudy
5:36 PM 1.4 °F - -7.6 °F 66% 30.21 in 10.0 mi Calm Calm - N/A   Overcast
5:56 PM 1.4 °F - -5.8 °F 72% 30.21 in 10.0 mi Calm Calm - N/A   Scattered Clouds
6:16 PM 1.4 °F - -5.8 °F 72% 30.20 in 9.0 mi Calm Calm - N/A   Partly Cloudy
6:36 PM 1.4 °F - -5.8 °F 72% 30.20 in 10.0 mi Calm Calm - N/A   Scattered Clouds
6:56 PM 1.4 °F - -5.8 °F 72% 30.19 in 4.0 mi Calm Calm - N/A   Overcast
7:16 PM 1.4 °F - -5.8 °F 72% 30.18 in 3.0 mi Calm Calm - N/A   Overcast
7:36 PM 1.4 °F - -5.8 °F 72% 30.18 in 3.0 mi Calm Calm - N/A   Mostly Cloudy
7:56 PM 1.4 °F - -5.8 °F 72% 30.18 in 6.0 mi Calm Calm - N/A   Partly Cloudy
8:16 PM 1.4 °F - -5.8 °F 72% 30.17 in 7.0 mi Calm Calm - N/A   Clear
8:36 PM 1.4 °F - -5.8 °F 72% 30.17 in 10.0 mi Calm Calm - N/A   Mostly Cloudy
8:56 PM 3.2 °F - -4.0 °F 72% 30.16 in 3.0 mi Calm Calm - N/A   Overcast
9:16 PM 3.2 °F - -2.2 °F 78% 30.16 in 3.0 mi Calm Calm - N/A   Overcast
9:36 PM 3.2 °F - -4.0 °F 72% 30.15 in 3.0 mi Calm Calm - N/A   Overcast
9:56 PM 3.2 °F - -2.2 °F 78% 30.15 in 4.0 mi Calm Calm - N/A   Overcast
10:16 PM 3.2 °F - -2.2 °F 78% 30.14 in 3.0 mi Calm Calm - N/A   Overcast
10:36 PM 3.2 °F - -2.2 °F 78% 30.14 in 5.0 mi Calm Calm - N/A   Overcast
10:56 PM 3.2 °F - -2.2 °F 78% 30.13 in 6.0 mi Calm Calm - N/A   Mostly Cloudy
11:16 PM 3.2 °F - -2.2 °F 78% 30.13 in 10.0 mi Calm Calm - N/A   Partly Cloudy
11:36 PM 3.2 °F - -2.2 °F 78% 30.13 in 8.0 mi Calm Calm - N/A   Mostly Cloudy
11:56 PM 3.2 °F - -4.0 °F 72% 30.13 in 8.0 mi Calm Calm - N/A   Mostly Cloudy